Tracking 20242 objects as of 24-Jan-2020
HD Live streaming from Space Station
objects crossing your sky now

COSMOS 2251 DEB

Track COSMOS 2251 DEB now!
10-day predictions


NORAD ID: 34631
Int'l Code: 1993-036XC
Perigee: 506.9 km
Apogee: 523.3 km
Inclination: 74.0 °
Period: 94.8 minutes
Semi major axis: 6886 km
RCS: 0.011 m2 (small)
Launch date: June 16, 1993
Source: Commonwealth of Independent States (former USSR) (CIS)
Launch site: PLESETSK MISSILE AND SPACE COMPLEX (PKMTR)

Note: This is SATELLITE DEBRIS
aabbcc
Your satellite tracking list
Your tracking list is empty




NASA's NSSDC Master Catalog

Two Line Element Set (TLE):
1 34631U 93036XC  20023.96588338  .00009045  00000-0  42933-3 0  9997
2 34631  73.9949  99.5923 0011934   5.9063 167.1177 15.19302911588449
Source of the keplerian elements: AFSPC